| time (UTC) | temp C | wind direction | speed KPH | gust KPH | rain 1hr cm | rain 24hr cm | rain mn cm | humidity % | barometer mb |
| 20260505041643 | 15 | 233 | 4.8 | 4.8 | 0.00 | 0.00 | 0.00 | 58 | 1007.2 |
| 20260505041140 | 15 | 230 | 3.2 | 3.2 | 0.00 | 0.00 | 0.00 | 58 | 1007.0 |
| 20260505040636 | 15 | 230 | 8.0 | 11.3 | 0.00 | 0.00 | 0.00 | 57 | 1007.1 |
| 20260505040134 | 15 | 143 | 8.0 | 12.9 | 0.00 | 0.00 | 0.00 | 57 | 1006.9 |
| 20260505035630 | 15 | 225 | 4.8 | 6.4 | 0.00 | 0.00 | 0.00 | 56 | 1007.0 |
| 20260505035127 | 15 | 235 | 4.8 | 4.8 | 0.00 | 0.00 | 0.00 | 56 | 1006.8 |
| 20260505034624 | 15 | 224 | 3.2 | 4.8 | 0.00 | 0.00 | 0.00 | 55 | 1007.1 |
| 20260505034120 | 15 | 225 | 6.4 | 9.7 | 0.00 | 0.00 | 0.00 | 55 | 1007.0 |
| 20260505033617 | 15 | 212 | 6.4 | 9.7 | 0.00 | 0.00 | 0.00 | 55 | 1007.1 |
| 20260505033116 | 15 | 218 | 1.6 | 3.2 | 0.00 | 0.00 | 0.00 | 55 | 1006.9 |
| 20260505032613 | 15 | 216 | 3.2 | 4.8 | 0.00 | 0.00 | 0.00 | 54 | 1006.8 |
| 20260505032109 | 15 | 234 | 3.2 | 3.2 | 0.00 | 0.00 | 0.00 | 54 | 1006.9 |
| 20260505031607 | 15 | 226 | 4.8 | 4.8 | 0.00 | 0.00 | 0.00 | 54 | 1006.8 |
| 20260505031103 | 15 | 243 | 12.9 | 14.5 | 0.00 | 0.00 | 0.00 | 53 | 1007.0 |
| 20260505030600 | 15 | 220 | 4.8 | 9.7 | 0.00 | 0.00 | 0.00 | 53 | 1007.0 |
| 20260505030056 | 15 | 216 | 4.8 | 4.8 | 0.00 | 0.00 | 0.00 | 53 | 1006.8 |
| 20260505025551 | 15 | 222 | 6.4 | 6.4 | 0.00 | 0.00 | 0.00 | 53 | 1007.0 |
| 20260505025051 | 16 | 226 | 3.2 | 4.8 | 0.00 | 0.00 | 0.00 | 53 | 1006.9 |
| 20260505024547 | 16 | 203 | 4.8 | 4.8 | 0.00 | 0.00 | 0.00 | 52 | 1007.1 |
| 20260505024045 | 16 | 201 | 4.8 | 6.4 | 0.00 | 0.00 | 0.00 | 52 | 1006.9 |
| 20260505023542 | 16 | 210 | 3.2 | 3.2 | 0.00 | 0.00 | 0.00 | 52 | 1007.0 |
| 20260505023039 | 16 | 196 | 4.8 | 6.4 | 0.00 | 0.00 | 0.00 | 51 | 1007.1 |
| 20260505022537 | 16 | 238 | 3.2 | 3.2 | 0.00 | 0.00 | 0.00 | 51 | 1006.7 |
| 20260505022034 | 16 | 228 | 4.8 | 4.8 | 0.00 | 0.00 | 0.00 | 51 | 1007.0 |
| 20260505021530 | 16 | 190 | 6.4 | 6.4 | 0.00 | 0.00 | 0.00 | 50 | 1006.9 |
| 20260505021026 | 16 | 215 | 3.2 | 3.2 | 0.00 | 0.00 | 0.00 | 50 | 1007.0 |
| 20260505020520 | 16 | 199 | 3.2 | 4.8 | 0.00 | 0.00 | 0.00 | 50 | 1006.8 |
| 20260505020018 | 16 | 227 | 9.7 | 11.3 | 0.00 | 0.00 | 0.00 | 50 | 1007.0 |
| 20260505015515 | 16 | 254 | 3.2 | 4.8 | 0.00 | 0.00 | 0.00 | 50 | 1006.9 |
| 20260505015012 | 16 | 252 | 9.7 | 11.3 | 0.00 | 0.00 | 0.00 | 50 | 1006.7 |
| 20260505014509 | 16 | 214 | 8.0 | 11.3 | 0.00 | 0.00 | 0.00 | 50 | 1006.8 |
| 20260505014007 | 16 | 192 | 6.4 | 14.5 | 0.00 | 0.00 | 0.00 | 50 | 1006.6 |
| 20260505013503 | 16 | 212 | 6.4 | 6.4 | 0.00 | 0.00 | 0.00 | 49 | 1006.7 |
| 20260505013000 | 17 | 258 | 6.4 | 9.7 | 0.00 | 0.00 | 0.00 | 49 | 1006.6 |
| 20260505012459 | 17 | 165 | 4.8 | 4.8 | 0.00 | 0.00 | 0.00 | 49 | 1006.4 |
| 20260505011955 | 17 | 221 | 3.2 | 3.2 | 0.00 | 0.00 | 0.00 | 48 | 1006.3 |
| 20260505011451 | 17 | 190 | 9.7 | 12.9 | 0.00 | 0.00 | 0.00 | 48 | 1006.2 |
| 20260505010948 | 17 | 185 | 6.4 | 6.4 | 0.00 | 0.00 | 0.00 | 47 | 1006.2 |
| 20260505010444 | 17 | 220 | 3.2 | 3.2 | 0.00 | 0.00 | 0.00 | 47 | 1006.0 |
| 20260505005940 | 17 | 218 | 6.4 | 9.7 | 0.00 | 0.00 | 0.00 | 46 | 1005.8 |
| 20260505005437 | 17 | 209 | 9.7 | 11.3 | 0.00 | 0.00 | 0.00 | 46 | 1005.7 |
| 20260505004935 | 17 | 219 | 6.4 | 11.3 | 0.00 | 0.00 | 0.00 | 46 | 1005.6 |
| 20260505004431 | 18 | 216 | 8.0 | 9.7 | 0.00 | 0.00 | 0.00 | 46 | 1005.2 |
| 20260505003928 | 18 | 162 | 4.8 | 6.4 | 0.00 | 0.00 | 0.00 | 45 | 1005.4 |
| 20260505003425 | 18 | 224 | 4.8 | 4.8 | 0.00 | 0.00 | 0.00 | 44 | 1005.2 |
| 20260505002921 | 18 | 217 | 3.2 | 3.2 | 0.00 | 0.00 | 0.00 | 43 | 1005.4 |
| 20260505002418 | 18 | 197 | 6.4 | 9.7 | 0.00 | 0.00 | 0.00 | 43 | 1004.9 |
| 20260505001916 | 18 | 213 | 6.4 | 6.4 | 0.00 | 0.00 | 0.00 | 43 | 1004.8 |
| 20260505001413 | 18 | 233 | 9.7 | 11.3 | 0.00 | 0.00 | 0.00 | 42 | 1004.6 |
| 20260505000910 | 18 | 200 | 11.3 | 14.5 | 0.00 | 0.00 | 0.00 | 41 | 1004.7 |
| 20260505000408 | 19 | 206 | 4.8 | 6.4 | 0.00 | 0.00 | 0.00 | 40 | 1004.2 |
| 20260504235904 | 19 | 240 | 8.0 | 11.3 | 0.00 | 0.00 | 0.00 | 39 | 1004.1 |
| 20260504235402 | 20 | 221 | 6.4 | 6.4 | 0.00 | 0.00 | 0.00 | 37 | 1004.3 |
| 20260504234858 | 20 | 212 | 3.2 | 3.2 | 0.00 | 0.00 | 0.00 | 36 | 1004.0 |
| 20260504234356 | 20 | 217 | 1.6 | 1.6 | 0.00 | 0.00 | 0.00 | 36 | 1004.0 |
| 20260504233852 | 20 | 217 | 3.2 | 3.2 | 0.00 | 0.00 | 0.00 | 35 | 1003.8 |
| 20260504233348 | 21 | 215 | 1.6 | 1.6 | 0.00 | 0.00 | 0.00 | 35 | 1003.9 |
| 20260504232844 | 21 | 235 | 4.8 | 4.8 | 0.00 | 0.00 | 0.00 | 34 | 1003.6 |
| 20260504232342 | 21 | 221 | 6.4 | 6.4 | 0.00 | 0.00 | 0.00 | 34 | 1003.7 |
| 20260504231838 | 21 | 174 | 3.2 | 3.2 | 0.00 | 0.00 | 0.00 | 34 | 1003.6 |
| 20260504231335 | 21 | 226 | 3.2 | 3.2 | 0.00 | 0.00 | 0.00 | 34 | 1003.5 |
| 20260504230831 | 21 | 232 | 3.2 | 3.2 | 0.00 | 0.00 | 0.00 | 34 | 1003.5 |
| 20260504230329 | 21 | 207 | 6.4 | 9.7 | 0.00 | 0.00 | 0.00 | 33 | 1003.3 |
| 20260504225828 | 21 | 243 | 6.4 | 6.4 | 0.00 | 0.00 | 0.00 | 33 | 1003.5 |
| 20260504225324 | 21 | 232 | 3.2 | 4.8 | 0.00 | 0.00 | 0.00 | 33 | 1003.3 |
| 20260504224821 | 21 | 217 | 3.2 | 3.2 | 0.00 | 0.00 | 0.00 | 33 | 1003.3 |
| 20260504224318 | 21 | 245 | 6.4 | 6.4 | 0.00 | 0.00 | 0.00 | 33 | 1003.2 |
| 20260504223815 | 21 | 261 | 6.4 | 6.4 | 0.00 | 0.00 | 0.00 | 32 | 1003.1 |
| 20260504223310 | 21 | 166 | 9.7 | 11.3 | 0.00 | 0.00 | 0.00 | 32 | 1003.1 |
| 20260504222807 | 22 | 246 | 8.0 | 9.7 | 0.00 | 0.00 | 0.00 | 32 | 1003.1 |
| 20260504222305 | 22 | 249 | 4.8 | 4.8 | 0.00 | 0.00 | 0.00 | 32 | 1003.1 |
| 20260504221802 | 22 | 247 | 6.4 | 6.4 | 0.00 | 0.00 | 0.00 | 32 | 1003.1 |
| 20260504221259 | 22 | 210 | 4.8 | 6.4 | 0.00 | 0.00 | 0.00 | 31 | 1003.2 |
| 20260504220755 | 22 | 211 | 4.8 | 4.8 | 0.00 | 0.00 | 0.00 | 32 | 1003.1 |
| 20260504220252 | 22 | 199 | 8.0 | 9.7 | 0.00 | 0.00 | 0.00 | 31 | 1003.4 |
| 20260504215750 | 22 | 240 | 4.8 | 6.4 | 0.00 | 0.00 | 0.00 | 31 | 1003.2 |
| 20260504215246 | 22 | 231 | 6.4 | 6.4 | 0.00 | 0.00 | 0.00 | 31 | 1003.0 |
| 20260504214742 | 22 | 242 | 6.4 | 6.4 | 0.00 | 0.00 | 0.00 | 31 | 1003.2 |
| 20260504214239 | 22 | 247 | 6.4 | 9.7 | 0.00 | 0.00 | 0.00 | 31 | 1003.1 |
| 20260504213735 | 22 | 226 | 8.0 | 9.7 | 0.00 | 0.00 | 0.00 | 32 | 1003.1 |
| 20260504213226 | 22 | 224 | 4.8 | 4.8 | 0.00 | 0.00 | 0.00 | 31 | 1003.1 |
| 20260504212723 | 22 | 264 | 8.0 | 9.7 | 0.00 | 0.00 | 0.00 | 31 | 1003.0 |
| 20260504212220 | 22 | 255 | 6.4 | 6.4 | 0.00 | 0.00 | 0.00 | 30 | 1003.0 |
| 20260504211717 | 22 | 242 | 4.8 | 6.4 | 0.00 | 0.00 | 0.00 | 31 | 1003.1 |
| 20260504211213 | 21 | 232 | 6.4 | 6.4 | 0.00 | 0.00 | 0.00 | 31 | 1003.0 |
| 20260504210711 | 21 | 212 | 9.7 | 9.7 | 0.00 | 0.00 | 0.00 | 31 | 1003.1 |
| 20260504210208 | 21 | 226 | 8.0 | 12.9 | 0.00 | 0.00 | 0.00 | 31 | 1003.0 |
| 20260504205705 | 21 | 223 | 8.0 | 11.3 | 0.00 | 0.00 | 0.00 | 30 | 1003.1 |
| 20260504205202 | 22 | 235 | 8.0 | 11.3 | 0.00 | 0.00 | 0.00 | 31 | 1003.1 |
| 20260504204700 | 22 | 220 | 6.4 | 9.7 | 0.00 | 0.00 | 0.00 | 30 | 1003.2 |
| 20260504204159 | 22 | 235 | 4.8 | 6.4 | 0.00 | 0.00 | 0.00 | 30 | 1003.3 |
| 20260504203657 | 22 | 227 | 6.4 | 11.3 | 0.00 | 0.00 | 0.00 | 30 | 1003.2 |
| 20260504203154 | 22 | 230 | 11.3 | 12.9 | 0.00 | 0.00 | 0.00 | 29 | 1003.1 |
| 20260504202649 | 22 | 206 | 9.7 | 12.9 | 0.00 | 0.00 | 0.00 | 29 | 1003.3 |
| 20260504202146 | 22 | 216 | 9.7 | 14.5 | 0.00 | 0.00 | 0.00 | 29 | 1003.1 |
| 20260504201643 | 22 | 249 | 11.3 | 12.9 | 0.00 | 0.00 | 0.00 | 29 | 1003.1 |
| 20260504201141 | 22 | 226 | 8.0 | 11.3 | 0.00 | 0.00 | 0.00 | 29 | 1003.3 |
| 20260504200638 | 22 | 211 | 3.2 | 4.8 | 0.00 | 0.00 | 0.00 | 29 | 1003.1 |
| 20260504200134 | 22 | 228 | 6.4 | 9.7 | 0.00 | 0.00 | 0.00 | 29 | 1003.3 |
| 20260504195630 | 22 | 222 | 8.0 | 11.3 | 0.00 | 0.00 | 0.00 | 28 | 1003.1 |
| 20260504195126 | 22 | 227 | 11.3 | 12.9 | 0.00 | 0.00 | 0.00 | 29 | 1003.3 |
| 20260504194623 | 22 | 160 | 9.7 | 11.3 | 0.00 | 0.00 | 0.00 | 29 | 1003.2 |
| 20260504194119 | 22 | 240 | 6.4 | 6.4 | 0.00 | 0.00 | 0.00 | 29 | 1003.3 |
| 20260504193616 | 22 | 240 | 9.7 | 12.9 | 0.00 | 0.00 | 0.00 | 29 | 1003.1 |
| 20260504193114 | 21 | 257 | 9.7 | 12.9 | 0.00 | 0.00 | 0.00 | 29 | 1003.2 |
| 20260504192612 | 22 | 226 | 9.7 | 12.9 | 0.00 | 0.00 | 0.00 | 29 | 1003.4 |
| 20260504192110 | 21 | 193 | 11.3 | 12.9 | 0.00 | 0.00 | 0.00 | 29 | 1003.2 |
| 20260504191608 | 22 | 245 | 6.4 | 9.7 | 0.00 | 0.00 | 0.00 | 29 | 1003.4 |
| 20260504191104 | 22 | 278 | 12.9 | 16.1 | 0.00 | 0.00 | 0.00 | 29 | 1003.5 |
| 20260504190600 | 22 | 193 | 8.0 | 11.3 | 0.00 | 0.00 | 0.00 | 29 | 1003.1 |
| 20260504190056 | 22 | 252 | 4.8 | 4.8 | 0.00 | 0.00 | 0.00 | 29 | 1003.4 |
| 20260504185553 | 22 | 233 | 12.9 | 17.7 | 0.00 | 0.00 | 0.00 | 29 | 1003.5 |
| 20260504185050 | 21 | 268 | 6.4 | 9.7 | 0.00 | 0.00 | 0.00 | 29 | 1003.6 |
| 20260504184545 | 21 | 245 | 3.2 | 6.4 | 0.00 | 0.00 | 0.00 | 30 | 1003.5 |
| 20260504184041 | 21 | 244 | 14.5 | 17.7 | 0.00 | 0.00 | 0.00 | 30 | 1003.6 |
| 20260504183538 | 21 | 210 | 20.9 | 30.6 | 0.00 | 0.00 | 0.00 | 29 | 1003.7 |
| 20260504183036 | 21 | 240 | 6.4 | 9.7 | 0.00 | 0.00 | 0.00 | 30 | 1003.7 |
| 20260504182533 | 21 | 246 | 6.4 | 6.4 | 0.00 | 0.00 | 0.00 | 30 | 1003.6 |
| 20260504182030 | 21 | 232 | 14.5 | 16.1 | 0.00 | 0.00 | 0.00 | 30 | 1003.8 |
| 20260504181527 | 21 | 243 | 3.2 | 6.4 | 0.00 | 0.00 | 0.00 | 30 | 1003.5 |
| 20260504181026 | 21 | 274 | 12.9 | 16.1 | 0.00 | 0.00 | 0.00 | 31 | 1003.5 |
| 20260504180524 | 21 | 231 | 19.3 | 24.1 | 0.00 | 0.00 | 0.00 | 30 | 1003.6 |
| 20260504180023 | 21 | 235 | 9.7 | 11.3 | 0.00 | 0.00 | 0.00 | 31 | 1003.9 |
| 20260504175519 | 21 | 246 | 20.9 | 27.4 | 0.00 | 0.00 | 0.00 | 31 | 1004.0 |
| 20260504175016 | 21 | 202 | 14.5 | 17.7 | 0.00 | 0.00 | 0.00 | 30 | 1003.9 |
| 20260504174514 | 20 | 243 | 9.7 | 12.9 | 0.00 | 0.00 | 0.00 | 31 | 1003.9 |
| 20260504174011 | 20 | 208 | 6.4 | 9.7 | 0.00 | 0.00 | 0.00 | 31 | 1003.9 |
| 20260504173508 | 20 | 234 | 8.0 | 11.3 | 0.00 | 0.00 | 0.00 | 31 | 1003.9 |
| 20260504173005 | 20 | 177 | 11.3 | 12.9 | 0.00 | 0.00 | 0.00 | 32 | 1003.9 |
| 20260504172501 | 20 | 240 | 11.3 | 12.9 | 0.00 | 0.00 | 0.00 | 32 | 1004.2 |
| 20260504171957 | 20 | 204 | 17.7 | 27.4 | 0.00 | 0.00 | 0.00 | 32 | 1004.1 |
| 20260504171455 | 20 | 237 | 16.1 | 25.7 | 0.00 | 0.00 | 0.00 | 31 | 1004.3 |
| 20260504170951 | 20 | 259 | 11.3 | 17.7 | 0.00 | 0.00 | 0.00 | 32 | 1004.0 |
| 20260504170448 | 20 | 246 | 16.1 | 17.7 | 0.00 | 0.00 | 0.00 | 31 | 1004.1 |
| 20260504160408 | 19 | 209 | 14.5 | 17.7 | 0.00 | 0.00 | 0.00 | 34 | 1004.4 |
| 20260504150831 | 17 | 226 | 8.0 | 11.3 | 0.00 | 0.00 | 0.00 | 38 | 1005.3 |
| 20260504150328 | 18 | 235 | 4.8 | 6.4 | 0.00 | 0.00 | 0.00 | 38 | 1005.5 |
| 20260504141258 | 17 | 233 | 9.7 | 11.3 | 0.00 | 0.00 | 0.00 | 40 | 1005.9 |
| 20260504140755 | 16 | 224 | 9.7 | 12.9 | 0.00 | 0.00 | 0.00 | 41 | 1005.9 |
| 20260504140250 | 16 | 216 | 11.3 | 14.5 | 0.00 | 0.00 | 0.00 | 41 | 1006.0 |
| 20260504130719 | 14 | 209 | 11.3 | 12.9 | 0.00 | 0.00 | 0.00 | 45 | 1006.6 |
| 20260504130215 | 14 | 213 | 6.4 | 6.4 | 0.00 | 0.00 | 0.00 | 46 | 1006.5 |
| 20260504120139 | 11 | 234 | 6.4 | 6.4 | 0.00 | 0.00 | 0.00 | 52 | 1007.4 |
| 20260504110606 | 8 | 217 | 3.2 | 3.2 | 0.00 | 0.00 | 0.00 | 58 | 1007.5 |
| 20260504100528 | 7 | 226 | 4.8 | 4.8 | 0.00 | 0.00 | 0.00 | 60 | 1007.4 |
| 20260504081921 | 7 | 228 | 1.6 | 3.2 | 0.00 | 0.00 | 0.00 | 58 | 1007.2 |
| 20260504081418 | 7 | 231 | 4.8 | 4.8 | 0.00 | 0.00 | 0.00 | 57 | 1007.3 |
| 20260504080914 | 7 | 234 | 3.2 | 3.2 | 0.00 | 0.00 | 0.00 | 58 | 1007.2 |
| 20260504080411 | 7 | 229 | 1.6 | 3.2 | 0.00 | 0.00 | 0.00 | 58 | 1007.1 |
| 20260504070338 | 6 | 219 | 1.6 | 1.6 | 0.00 | 0.00 | 0.00 | 59 | 1007.0 |
| 20260504050726 | 5 | 231 | 3.2 | 4.8 | 0.00 | 0.00 | 0.00 | 62 | 1007.1 |
| 20260504050218 | 6 | 238 | 3.2 | 3.2 | 0.00 | 0.00 | 0.00 | 62 | 1007.2 |
| 20260504045716 | 6 | 236 | 3.2 | 3.2 | 0.00 | 0.00 | 0.00 | 61 | 1007.2 |
| 20260504045215 | 6 | 219 | 3.2 | 3.2 | 0.00 | 0.00 | 0.00 | 61 | 1007.3 |
| 20260504044714 | 6 | 214 | 3.2 | 3.2 | 0.00 | 0.00 | 0.00 | 61 | 1007.1 |
| 20260504044211 | 6 | 232 | 3.2 | 3.2 | 0.00 | 0.00 | 0.00 | 62 | 1007.1 |
| 20260504043708 | 6 | 228 | 3.2 | 3.2 | 0.00 | 0.00 | 0.00 | 61 | 1007.1 |
| 20260504043204 | 6 | 228 | 3.2 | 3.2 | 0.00 | 0.00 | 0.00 | 60 | 1007.3 |
| 20260504042702 | 6 | 220 | 3.2 | 3.2 | 0.00 | 0.00 | 0.00 | 60 | 1007.1 |